STARLINK-3388, 51131

Orbit data source: Space-Track

STARLINK-3388, 51131 is a payload satellite owned by SpaceX/Seattle (US) in LEO that was launched on Wed, 19 Jan 2022 UTC via an FALCON 9 launch vehicle from the Air Force Eastern Test Range (AFETR). Payload-class satellites include a variety of spacecraft equipped with specific instruments for various scientific and technological missions. These include communications satellites like Starlink; space stations such as the ISS; scientific satellites like the Hubble; Earth observation satellites from companies like Planet Labs, Umbra, and HawkEye 360; GPS; miniature CubeSats for education and research; and military/defense satellites.

Loading next visibility...
Identifier
51131, 2022-005AD
Orbit
LEO
Country
Flag of USUS
Related business
Manufacturer
SpaceX/Seattle
Mission
Operational Commercial Communications
Bus & Motor
STARLINK, Unknown motor
Mass
297 kg wet, ~275 kg dry
Launch date (UTC)
2022-01-19 (4 years ago)
Launch vehicle
FALCON 9
Launch site
Air Force Eastern Test Range (AFETR)
Object type
Payload
Rocket body
Debris
Shape & HBR
Box + 1 Pan, 10.1 m
Radar Cross Section
13.562 m², Large (>1 m²)

Expand to show TLE details & history
Last TLE update: 11 hours ago

TLE from 11 hours ago
0 STARLINK-3388
1 51131U 22005AD  26094.24098800 -.00046684  00000-0 -29170-2 0  9993
2 51131  53.2173 184.4173 0001421 331.3217  28.7697 15.09055335232585
Epoch: 2026-04-04T05:47Z
TLE epoch observation values (Epoch: 2026-04-04T05:47:01.363Z)
Latitude
-0°
Longitude
-94.90197°
Altitude
539.121 km
Speed
7.595 km/s
True Right ascension
12h 17m 40s
True Declination
0° 00' 00"
Sunlit
Object was in full shadow at epoch
Visualization orbit readout
Latitude
Unknown
Longitude
Unknown
Altitude
Unknown
Speed
Unknown
Apparent Right ascension
Unknown
Apparent Declination
Unknown
Sunlit
N/A
Visualization observer readout
Local Sidereal Time
22:48:27
Azimuth
Unknown
Elevation
Unknown
Doppler factor
Unknown
Orbital elements
Apogee altitude
540.313 km
Perigee altitude
538.347 km
Semi-major axis
6,917.467 km
Eccentricity
0.00014
Inclination
53.2173°
RAAN
184.4173°
Arg. of periapsis
331.3217°
True anomaly
28.77754°
Mean anomaly
28.7697°
Eccentric anomaly
28.77362°
Mean motion
3.77244 °/min
Orbital period
95.43 mins
BSTAR
-0.002917
Loading maneuver chart data...
Computing Atmospheric mass density...
Loading historical data...
Loading historical data...
Loading historical data...
Loading historical data...
Loading historical data...
Loading historical data...
Loading historical data...

Documentation

Showing up to 5 results
|